Lid_Strength_Index
9 10 9 9 9 9 9 8 7 7 7 7 7 5 2 1 0 1 2 2 2 3 3 3 3 3 3 2 2 3 4 5 8 12 11 10 10 10 9 9 8 6 5
9 9 10 10 10 10 10 9 8 8 8 7 7 5 2 1 1 1 3 3 3 4 4 3 4 2 2 3 3 4 5 7 8 11 12 12 11 10 9 9 9 8 6
10 9 9 11 11 10 10 10 9 9 8 8 7 7 6 3 3 3 3 4 4 4 4 3 4 4 5 5 5 7 6 8 8 11 13 11 11 11 11 11 9 8 8
10 10 9 10 11 10 10 10 10 9 9 9 9 8 8 7 6 6 6 8 8 8 8 7 6 6 6 6 6 6 6 8 9 10 11 12 12 11 11 11 11 10 10
10 10 10 10 9 10 10 10 11 10 10 10 10 9 9 9 8 8 8 9 9 10 11 11 10 11 10 8 6 6 7 8 9 10 11 12 12 13 12 11 11 11 11
10 11 10 10 10 10 11 11 11 10 10 10 11 10 10 10 11 10 10 10 10 11 12 12 11 11 10 10 9 8 7 8 9 10 10 11 12 12 12 12 12 12 11
10 11 11 12 11 10 11 11 11 11 11 11 11 10 11 11 11 11 12 11 11 12 11 11 12 12 9 8 10 10 10 9 8 8 9 10 11 12 12 12 12 10 10
11 10 11 11 12 12 12 11 11 11 11 11 11 10 11 11 11 12 13 12 12 12 12 11 9 9 9 9 9 9 10 10 10 9 8 7 8 10 10 10 10 11 12
12 11 11 11 12 11 12 12 12 11 11 12 11 10 10 11 11 11 10 11 12 12 12 12 11 11 12 11 10 11 11 12 12 11 11 10 9 9 9 10 12 12 13
12 12 12 11 11 12 12 13 13 12 13 12 13 12 13 11 11 10 10 10 11 12 12 12 13 11 12 12 12 12 13 12 13 12 12 11 11 10 10 9 10 11 11
13 13 13 13 12 11 12 12 12 13 13 13 13 12 12 12 11 11 11 11 11 12 12 12 12 11 11 12 13 13 13 13 13 13 13 12 12 12 11 11 11 10 11
14 14 15 15 14 14 13 14 13 13 13 13 12 12 13 13 12 11 11 11 11 11 12 12 12 11 11 12 13 13 13 14 13 13 13 13 14 14 13 13 14 13 13
15 16 16 17 15 15 15 15 14 13 12 13 12 11 12 13 13 13 12 11 12 13 13 13 12 12 12 12 12 14 15 14 14 14 13 14 14 15 16 16 16 16 16
16 17 17 16 16 16 15 14 14 13 13 13 13 12 12 12 12 13 12 12 13 13 13 14 14 14 15 15 14 14 14 15 15 14 15 15 17 17 16 16 16 14 15
16 16 16 15 15 16 15 15 14 14 13 13 13 13 13 13 14 14 13 12 12 14 14 14 14 13 14 14 14 14 15 15 15 15 16 16 16 17 17 17 17 16 16
16 16 16 16 16 16 16 16 16 15 16 15 15 15 15 15 15 14 14 14 14 15 15 15 15 15 15 15 15 15 15 15 15 15 16 16 17 17 18 18 19 18 17
15 15 15 15 15 15 16 15 14 16 15 15 14 14 14 14 14 14 14 14 14 15 16 15 15 15 15 16 16 16 17 16 16 16 16 16 17 17 17 18 18 18 18
15 15 15 15 14 15 15 15 15 14 14 15 15 15 14 14 14 13 13 14 15 14 15 15 15 15 15 15 15 16 16 16 16 16 16 16 16 16 16 17 17 18 18
15 15 15 14 14 15 15 15 15 15 15 15 15 15 15 14 14 13 13 14 15 15 15 15 15 15 15 15 15 15 16 16 16 17 16 16 16 16 16 16 16 17 18
15 15 15 15 15 15 15 15 16 15 15 14 14 14 14 14 15 15 15 15 15 15 15 15 15 15 15 15 15 15 16 16 16 16 16 16 16 16 16 16 16 16 17
14 15 15 14 15 15 15 15 15 14 14 14 14 14 14 15 16 16 16 16 16 16 16 16 17 17 16 16 16 15 16 16 16 16 16 16 16 16 16 15 15 15 15
14 14 14 14 15 15 15 14 14 14 15 16 16 17 17 18 18 19 18 19 18 18 18 18 19 18 18 18 18 17 17 17 17 17 16 15 15 15 16 16 16 15 15
14 14 14 14 14 14 14 14 15 16 18 19 19 20 19 19 19 19 19 19 19 19 18 18 18 18 17 17 17 18 19 19 18 18 17 17 17 17 16 15 15 15 15
14 14 13 13 14 16 18 19 20 20 20 20 20 20 20 20 20 20 20 19 19 18 18 18 18 18 18 18 17 18 19 19 19 19 19 19 19 19 18 18 17 17 16
15 16 16 17 18 19 20 20 20 20 20 20 21 20 20 20 20 20 19 19 19 19 18 18 18 18 18 19 18 18 19 20 20 20 19 20 21 21 21 20 20 19 18
19 19 19 19 20 20 20 21 21 21 21 21 21 21 21 21 20 20 20 20 19 19 19 19 18 18 18 17 17 18 18 19 20 21 20 21 21 21 21 21 21 20 20